Location: Gloden
(48.4833°N, 15.3167°E)
Time: 17:20:26
(UTC+00:00)

Cosmos 2279 Rocket - Pass Details

Date: 15 December 2019
Orbit: 964 x 979 km, 82.9° (Epoch: 25 January)

Event Time Altitude Azimuth Distance (km) Brightness Sun altitude
Rises 04:49:42 0° 203° (SSW) 3,646 6.9 -17.8°
Reaches altitude 10° 04:52:16 10° 208° (SSW) 2,705 6.2 -17.4°
Maximum altitude 04:58:18 53° 284° (WNW) 1,184 4.1 -16.4°
Drops below altitude 10° 05:04:25 10° 1° (N) 2,732 6.2 -15.5°
Sets 05:07:02 0° 7° (N) 3,686 6.9 -15.1°
